Hourly Weather Roundup
Issued by NWS Central Illinois

Home | Current Version | Previous Version | Text Only | Print | Product List | Glossary On
Versions: 1 2 3 4 5 6 7 8 9 10 11 12 13 14 15 16 17 18 19 20 21 22 23 24 25 26 27 28 29 30 31 32 33 34 35 36 37 38 39 40 41 42 43 44 45 46 47 48 49 50
000
NZUS43 KILX 120510
HWRILX

AREA WEATHER ROUNDUP
NATIONAL WEATHER SERVICE, LINCOLN IL
1100 PM CST THU FEB 11 2016


CITY           SKY/WX    TMP DP  RH WIND       PRES   REMARKS
BLOOMINGTON    CLOUDY    22  13  68 S7        30.26F WCI  14
CHAMPAIGN      CLOUDY    21  13  71 CALM      30.27F
DANVILLE       CLOUDY    19   9  65 CALM      30.25F
DECATUR        MOCLDY    23  10  57 S3        30.27F
EFFINGHAM      CLOUDY    25  14  64 CALM      30.29F
FLORA          CLOUDY    27  14  57 E5        30.27F WCI  22
GALESBURG      CLOUDY    23  13  66 SW6       30.25S WCI  15
JACKSONVILLE   CLOUDY    26  16  64 CALM      30.26F
LACON          CLOUDY    22  10  59 CALM      30.26F
LAWRENCEVILLE  CLOUDY    25  12  58 CALM      30.30S
LITCHFIELD     FLURRIES  24  14  65 E3        30.26S
$$


CITY           SKY/WX    TMP DP  RH WIND       PRES   REMARKS
LINCOLN        CLOUDY    25  13  59 S3        30.27F
MACOMB         CLOUDY    23  17  77 SW6       30.28F WCI  16
MATTOON        CLOUDY    21  10  62 CALM      30.26F
MT CARMEL AP   CLOUDY    27  12  54 CALM      30.30S
OLNEY-NOBLE AP CLOUDY    27  14  59 E5        30.28F WCI  21
PARIS          CLOUDY    22  13  68 CALM      30.30S
PEORIA         CLOUDY    24  10  55 SW6       30.27F WCI  17
PONTIAC        CLOUDY    22  16  79 S5        30.28F WCI  15
RANTOUL        CLOUDY    23  11  60 CALM      30.26F
ROBINSON       MOCLDY    24  12  60 CALM      30.31F
SPRINGFIELD    CLOUDY    26  13  57 S5        30.28F WCI  20
TAYLORVILLE    CLOUDY    25  12  58 SE3       30.27S
$$

...REGIONAL REPORTS...


CITY           SKY/WX    TMP DP  RH WIND       PRES   REMARKS
CHICAGO O`HARE CLOUDY    18   7  62 W5        30.25F WCI  11
KANKAKEE       CLOUDY    18  12  77 SW3       30.28F
MOLINE         CLOUDY    22   9  57 CALM      30.26S
MOUNT STERLING CLOUDY    21  13  71 CALM      30.25F
MOUNT VERNON   CLOUDY    27  12  54 NE5       30.26F WCI  21
PITTSFIELD     CLOUDY    24  15  68 E5        30.25F WCI  18
QUINCY         CLOUDY    20  16  84 E9        30.24F WCI   9
ROCKFORD       CLOUDY    18   6  59 SW5       30.26F WCI  11
$$


CITY           SKY/WX    TMP DP  RH WIND       PRES   REMARKS
BURLINGTON     CLOUDY    21  18  88 SW6       30.25F WCI  13
CEDAR RAPIDS   CLOUDY    19  13  77 SW5       30.24S WCI  12
DES MOINES     FLURRIES  18  13  80 E5        30.24F WCI  11
KIRKSVILLE     CLOUDY    23  12  62 E6        30.23S WCI  16
OTTUMWA        LGT SNOW  20  18  92 CALM      30.25S FOG
ST LOUIS       CLOUDY    29  13  51 SE5       30.27S WCI  24
$$


CITY           SKY/WX    TMP DP  RH WIND       PRES   REMARKS
TERRE HAUTE    PTCLDY    22  14  71 CALM      30.29F
EVANSVILLE     CLOUDY    29  16  58 CALM      30.30R
INDIANAPOLIS   CLOUDY    20  10  65 SW3       30.26F
LAFAYETTE      CLOUDY    20  11  68 CALM      30.28F
MADISON        CLOUDY    16   0  49 VRB6      30.20F WCI   7
MILWAUKEE      CLOUDY    16   1  51 W7        30.22F WCI   6
$$





USA.gov is the U.S. government's official web portal to all federal, state and local government web resources and services.